Location: Kra?nica
(53.4833°N, 14.6167°E)
Time: 16:44:16
(UTC+00:00)

USA 267 - Pass Details

Date: 23 May 2024
Orbit: 1100 x 1107 km, 123.0° (Epoch: 21 May)

Event Time Altitude Azimuth Distance (km) Brightness Sun altitude
Rises 01:56:45 0° 78° (ENE) 3,920 7.1 -6.5°
Reaches altitude 10° 01:59:14 10° 76° (ENE) 2,962 6.5 -6.2°
Maximum altitude 02:05:42 67° 356° (N) 1,186 3.7 -5.6°
Drops below altitude 10° 02:12:10 10° 275° (W) 2,961 5.2 -4.9°
Sets 02:14:40 0° 273° (W) 3,918 5.8 -4.7°
